Weather History for KOWD - March, 2013

Change the Weather History Date:

Saturday, March 2, 2013

  Actual Average Record
Temperature  
Mean Temperature 38 °F -  
Max Temperature 42 °F 40 °F 64 °F (2004)
Min Temperature 34 °F 23 °F 15 °F (2006)
Degree Days  
Heating Degree Days 27    
Moisture  
Dew Point 25 °F    
Average Humidity 60    
Maximum Humidity 73    
Minimum Humidity 51    
Precipitation  
Precipitation 0.00 in - - ()
Sea Level Pressure  
Sea Level Pressure 29.65 in    
Wind  
Wind Speed 6 mph (NW)    
Max Wind Speed 12 mph    
Max Gust Speed 17 mph    
Visibility 10 miles    
Events      
Averages and records for this station are not official NWS values.
T = Trace of Precipitation, MM = Missing Value Source: NWS Daily Summary

Daily Weather History Graph

Daily Weather History Graph

Search for Another Location

Airport or City:

Trip Planner

Search our weather history database for the weather conditions in past years. The results will help you decide how hot, cold, wet, or windy it might be!

Date:

Astronomy

Mar. 02, 2013 Rise Set
Actual Time 6:17 AM EST 5:36 PM EST
Civil Twilight 5:49 AM EST 6:04 PM EST
Nautical Twilight 5:17 AM EST 6:36 PM EST
Astronomical Twilight 4:45 AM EST 7:09 PM EST
Moon 11:19 PM EST (3/2) 8:37 AM EST (3/2)
Length of Visible Light 12h 14m
Length of Day
11h 18m
Waning Gibbous, 74% of the Moon is Illuminated
Mar 2
Waning Gibbous
Mar 4
Last Quarter
Mar 11
New
Mar 19
First Quarter
Mar 27
Full

Hourly Weather History & Observations

Time (EST) Temp. Windchill Dew Point Humidity Pressure Visibility Wind Dir Wind Speed Gust Speed Precip Events Conditions
12:53 AM 36.0 °F 29.6 °F 26.1 °F 67% 29.67 in 10.0 mi NNW 8.1 mph - N/A   Overcast
1:53 AM 36.0 °F 31.1 °F 26.1 °F 67% 29.66 in 10.0 mi NW 5.8 mph - N/A   Overcast
2:53 AM 36.0 °F 32.1 °F 26.1 °F 67% 29.66 in 10.0 mi NW 4.6 mph - N/A   Overcast
3:53 AM 35.1 °F 32.2 °F 25.0 °F 67% 29.66 in 10.0 mi NW 3.5 mph - N/A   Overcast
4:53 AM 35.1 °F 30.1 °F 25.0 °F 67% 29.67 in 10.0 mi WNW 5.8 mph - N/A   Overcast
5:53 AM 34.0 °F 28.8 °F 26.1 °F 73% 29.67 in 10.0 mi West 5.8 mph - N/A   Overcast
6:53 AM 34.0 °F - 25.0 °F 70% 29.67 in 10.0 mi Calm Calm - N/A   Overcast
7:53 AM 36.0 °F 32.1 °F 25.0 °F 64% 29.68 in 10.0 mi NW 4.6 mph - N/A   Clear
8:53 AM 37.9 °F 30.5 °F 24.1 °F 57% 29.68 in 10.0 mi WNW 11.5 mph 17.3 mph N/A   Clear
9:53 AM 39.0 °F 34.8 °F 24.1 °F 55% 29.67 in 10.0 mi NW 5.8 mph - N/A   Overcast
10:53 AM 39.9 °F 35.1 °F 24.1 °F 53% 29.66 in 10.0 mi WNW 6.9 mph - N/A   Mostly Cloudy
11:53 AM 41.0 °F 35.8 °F 25.0 °F 53% 29.65 in 10.0 mi NNW 8.1 mph - N/A   Overcast
12:53 PM 42.1 °F 38.4 °F 25.0 °F 51% 29.63 in 10.0 mi NNE 5.8 mph - N/A   Overcast
1:53 PM 42.1 °F - 26.1 °F 53% 29.62 in 10.0 mi Calm Calm - N/A   Overcast
2:53 PM 42.1 °F 40.2 °F 25.0 °F 51% 29.62 in 10.0 mi WSW 3.5 mph - N/A   Overcast
3:53 PM 42.1 °F 38.4 °F 27.0 °F 55% 29.62 in 10.0 mi NW 5.8 mph - N/A   Overcast
4:53 PM 41.0 °F 37.1 °F 27.0 °F 57% 29.62 in 10.0 mi NW 5.8 mph - N/A   Overcast
5:53 PM 39.9 °F 36.7 °F 28.0 °F 63% 29.64 in 10.0 mi NW 4.6 mph - N/A   Overcast
6:53 PM 39.9 °F 35.8 °F 27.0 °F 60% 29.65 in 10.0 mi WNW 5.8 mph - N/A   Overcast
8:53 PM 39.0 °F 34.8 °F 25.0 °F 57% 29.66 in 10.0 mi NW 5.8 mph - N/A   Overcast
9:53 PM 37.9 °F 35.5 °F 24.1 °F 57% 29.66 in 10.0 mi NNW 3.5 mph - N/A   Overcast
10:53 PM 37.0 °F 31.0 °F 24.1 °F 59% 29.64 in 10.0 mi NW 8.1 mph - N/A   Overcast
11:53 PM 36.0 °F 33.3 °F 24.1 °F 62% 29.64 in 10.0 mi NW 3.5 mph - N/A   Overcast